Погода в Смышляевке

Россия / Ульяновская область     53°45′17″N   47°43′50″E
темп.,
°C
ветер,
м/с
пор.,
м/с
влажн.,
%
обл.,
%
осадки,
мм/ч
давл.,
гПа
погр.,
м
11 мая, вт
вт1101:00+15всв41168100 0.0 1018190
04:00+13св4973100 0.0 1020150
07:00+15вюв41263100 0.0 1021342
10:00+19юв5852100 0.0 1023787
13:00+22юв6104699 0.0 10241791
16:00+20ююв565684 0.0 1025763
19:00+17юз457137 0.1 1026275
22:00+14зсз227728 0.1 102745
12 мая, ср
ср1201:00+12с34895 0.0 102671
04:00+13в3983100 0.0 1026159
07:00+14вюв497580 0.0 1026299
10:00+16вюв4869100 0.0 1026464
13:00+17вюв51261100 0.0 1026532
16:00+15в498099 0.8 1026314
19:00+16вюв41170100 0.0 1025383
22:00+13вюв387813 0.0 1025156
13 мая, чт
чт1301:00+12вюв347411 0.0 102563
04:00+11в377222 0.0 1025112
07:00+14в51266100 0.0 1024248
10:00+14ююв41166100 0.1 1025350
13:00+20вюв61053100 0.4 1023612
16:00+24юв7124863 0.4 10221525
19:00+21юв6145059 0.0 1021508
22:00+17ююв4115416 0.0 1022230
14 мая, пт
пт1401:00+15юв236114 0.0 102220
04:00+13юв412643 0.0 1022220
07:00+15ююв4116722 0.1 1022273
10:00+21ююв694917 0.1 1022511
13:00+26ю710338 0.0 10221113
16:00+26ю6103875 0.0 10211464
19:00+23ю5104822 0.0 1021291
22:00+18ююв4105911 0.0 1021185
15 мая, сб
сб1501:00+16ююв36572 0.0 102182
04:00+15ююв34555 0.0 102150
07:00+17ююв39605 0.0 1021185
10:00+23ю59385 0.0 1020504
13:00+26ю711286 0.0 10201438
16:00+27ю69325 0.0 10191895
19:00+24ююв48462 0.0 1018168
22:00+19ююв46477 0.0 101773